This is the latest recevied weather packets stored in our database for station/object XW7RMR. If no packets are shown the sender has not sent any weather packets the latest 10 day(s).
| Time | Temp. | Humidity | Pressure | Rain* | Wind** | Luminosity | Snow |
|---|---|---|---|---|---|---|---|
| 1777197398 | 7.22° C | 71% | 1007 hPa | 0 mm | - | 0 W/m² | - |
| 1777197096 | 7.22° C | 70% | 1006.8 hPa | 0 mm | - | 0 W/m² | - |
| 1777196792 | 7.22° C | 70% | 1006.9 hPa | 0 mm | - | 0 W/m² | - |
| 1777196488 | 7.22° C | 71% | 1006.9 hPa | 0 mm | - | 0 W/m² | - |
| 1777196186 | 7.78° C | 71% | 1007 hPa | 0 mm | - | 0 W/m² | - |
| 1777195882 | 7.78° C | 72% | 1006.9 hPa | 0 mm | - | 0 W/m² | - |
| 1777195577 | 8.33° C | 69% | 1006.8 hPa | 0 mm | - | 0 W/m² | - |
| 1777195273 | 8.33° C | 68% | 1007 hPa | 0 mm | - | 0 W/m² | - |
| 1777194970 | 8.89° C | 64% | 1006.9 hPa | 0 mm | - | 0 W/m² | - |
| 1777194669 | 8.89° C | 65% | 1007 hPa | 0 mm | - | 0 W/m² | - |
| 1777194366 | 8.89° C | 62% | 1007.3 hPa | 0 mm | - | 0 W/m² | - |
| 1777194063 | 8.89° C | 60% | 1007.1 hPa | 0 mm | - | 0 W/m² | - |
| 1777193762 | 9.44° C | 59% | 1007.1 hPa | 0 mm | - | 0 W/m² | - |
| 1777193457 | 9.44° C | 59% | 1007.1 hPa | 0 mm | - | 0 W/m² | - |
| 1777193152 | 10° C | 57% | 1007.2 hPa | 0 mm | - | 0 W/m² | - |
| 1777192848 | 10° C | 56% | 1007.2 hPa | 0 mm | - | 0 W/m² | - |
| 1777192544 | 10° C | 57% | 1007.2 hPa | 0 mm | - | 0 W/m² | - |
| 1777192240 | 10.56° C | 53% | 1007.2 hPa | 0 mm | - | 0 W/m² | - |
| 1777191937 | 10.56° C | 53% | 1007.2 hPa | 0 mm | - | 0 W/m² | - |
| 1777191634 | 10° C | 54% | 1007.2 hPa | 0 mm | - | 0 W/m² | - |
| 1777191330 | 10° C | 53% | 1007 hPa | 0 mm | - | 0 W/m² | - |
| 1777191027 | 10° C | 55% | 1007.2 hPa | 0 mm | - | 0 W/m² | - |
| 1777190724 | 10.56° C | 52% | 1006.9 hPa | 0 mm | - | 0 W/m² | - |
| 1777190421 | 11.11° C | 49% | 1007 hPa | 0 mm | - | 0 W/m² | - |
| 1777190116 | 11.11° C | 51% | 1006.9 hPa | 0 mm | - | 0 W/m² | - |
* Rain latest hour (hover to see other rain measurements)
** Current wind speed in m/s (hover to see current wind gust speed)